{"data":{"norad_id":47258,"intl_designator":"2020-100A","name":"ONEWEB-0102","alt_names":[],"object_type":"PAYLOAD","status":"ACTIVE","operator":null,"country":"UK","launch_date":"2020-12-18","launch_site_code":"VOSTO","launch_vehicle":null,"mission":null,"orbit_class":"UNKNOWN","rcs_meters":null,"size_class":null,"mass_kg":null,"dimensions":null,"purposes":["comms"],"wikipedia_slug":null,"has_3d_model":false,"image_url":null,"decayed_at":null,"tle_current":{"epoch":"2026-09-19T12:22:26.156928Z","epoch_age_seconds":99430,"freshness":"FRESH","line1":"1 47258U 20100A   26262.51558052 -.00000190  00000+0 -56256-3 0  9996","line2":"2 47258  87.8976 331.9445 0001781  92.0976 268.0356 13.12442201277109","mean_motion":13.12442201,"eccentricity":0.0001781,"inclination_deg":87.8976,"raan_deg":331.9445,"arg_perigee_deg":92.0976,"mean_anomaly_deg":268.0356,"bstar":-0.00056256,"rev_number":27710,"period_min":109.71911745163,"perigee_km":1212.3742614068,"apogee_km":1215.07848314,"semimajor_km":7591.8633722734,"source":"CELESTRAK","updated_at":"2026-09-20T09:00:44.559689Z"}}}